| time (UTC) | temp C | wind direction | speed KPH | gust KPH | rain 1hr cm | rain 24hr cm | rain mn cm | humidity % | barometer mb |
| 20260504081500 | 4 | 225 | 1.6 | 3.2 | 0.00 | 0.00 | 0.00 | 92 | 1012.7 |
| 20260504050000 | 5 | 0.0 | 0.0 | 0.00 | 0.00 | 0.00 | 83 | 1012.2 | |
| 20260504044500 | 5 | 274 | 0.0 | 1.6 | 0.00 | 0.00 | 0.00 | 82 | 1012.1 |
| 20260504043000 | 5 | 227 | 0.0 | 1.6 | 0.00 | 0.00 | 0.00 | 82 | 1012.1 |
| 20260504041500 | 5 | 270 | 0.0 | 0.0 | 0.00 | 0.00 | 0.00 | 80 | 1011.9 |
| 20260504040000 | 5 | 312 | 0.0 | 1.6 | 0.00 | 0.00 | 0.00 | 79 | 1011.9 |
| 20260504034500 | 5 | 319 | 0.0 | 1.6 | 0.00 | 0.00 | 0.00 | 77 | 1011.9 |
| 20260504033000 | 6 | 0.0 | 0.0 | 0.00 | 0.00 | 0.00 | 75 | 1011.9 | |
| 20260504031500 | 6 | 0.0 | 0.0 | 0.00 | 0.00 | 0.00 | 75 | 1011.9 | |
| 20260504030000 | 6 | 278 | 0.0 | 1.6 | 0.00 | 0.00 | 0.00 | 72 | 1011.9 |
| 20260504024500 | 6 | 238 | 0.0 | 1.6 | 0.00 | 0.00 | 0.00 | 69 | 1012.0 |
| 20260504023000 | 6 | 271 | 0.0 | 0.0 | 0.00 | 0.00 | 0.00 | 70 | 1012.0 |
| 20260504021500 | 7 | 286 | 0.0 | 0.0 | 0.00 | 0.00 | 0.00 | 68 | 1011.9 |
| 20260504020000 | 7 | 282 | 0.0 | 1.6 | 0.00 | 0.00 | 0.00 | 67 | 1011.8 |
| 20260504014500 | 8 | 276 | 0.0 | 0.0 | 0.00 | 0.00 | 0.00 | 63 | 1011.7 |
| 20260504013000 | 8 | 0.0 | 0.0 | 0.00 | 0.00 | 0.00 | 62 | 1011.7 | |
| 20260504011500 | 9 | 0.0 | 0.0 | 0.00 | 0.00 | 0.00 | 58 | 1011.6 | |
| 20260504010000 | 10 | 0.0 | 0.0 | 0.00 | 0.00 | 0.00 | 55 | 1011.3 | |
| 20260504004500 | 10 | 254 | 0.0 | 1.6 | 0.00 | 0.00 | 0.00 | 51 | 1011.2 |
| 20260504003000 | 11 | 294 | 0.0 | 0.0 | 0.00 | 0.00 | 0.00 | 47 | 1011.0 |
| 20260504001500 | 11 | 325 | 0.0 | 1.6 | 0.00 | 0.00 | 0.00 | 45 | 1010.7 |
| 20260504000000 | 12 | 279 | 0.0 | 0.0 | 0.00 | 0.00 | 0.00 | 41 | 1010.5 |
| 20260503234500 | 12 | 310 | 0.0 | 3.2 | 0.00 | 0.00 | 0.00 | 40 | 1010.3 |
| 20260503233000 | 13 | 296 | 1.6 | 3.2 | 0.00 | 0.00 | 0.00 | 41 | 1010.2 |
| 20260503231500 | 13 | 337 | 1.6 | 3.2 | 0.00 | 0.00 | 0.00 | 39 | 1010.0 |
| 20260503230000 | 13 | 0.0 | 0.0 | 0.00 | 0.00 | 0.00 | 36 | 1009.9 | |
| 20260503224500 | 14 | 48 | 1.6 | 3.2 | 0.00 | 0.00 | 0.00 | 35 | 1009.7 |
| 20260503223000 | 14 | 329 | 1.6 | 3.2 | 0.00 | 0.00 | 0.00 | 34 | 1009.6 |
| 20260503221500 | 14 | 4 | 1.6 | 4.8 | 0.00 | 0.00 | 0.00 | 32 | 1009.6 |
| 20260503220000 | 14 | 334 | 1.6 | 3.2 | 0.00 | 0.00 | 0.00 | 34 | 1009.6 |
| 20260503214500 | 14 | 33 | 4.8 | 9.7 | 0.00 | 0.00 | 0.00 | 31 | 1009.5 |
| 20260503213000 | 14 | 19 | 4.8 | 6.4 | 0.00 | 0.00 | 0.00 | 29 | 1009.6 |
| 20260503211500 | 14 | 255 | 1.6 | 3.2 | 0.00 | 0.00 | 0.00 | 34 | 1009.6 |
| 20260503210000 | 15 | 67 | 3.2 | 9.7 | 0.00 | 0.00 | 0.00 | 32 | 1009.6 |
| 20260503204500 | 15 | 101 | 4.8 | 8.0 | 0.00 | 0.00 | 0.00 | 32 | 1009.5 |
| 20260503203000 | 15 | 0.0 | 0.0 | 0.00 | 0.00 | 0.00 | 34 | 1009.7 | |
| 20260503201500 | 15 | 30 | 4.8 | 9.7 | 0.00 | 0.00 | 0.00 | 32 | 1009.6 |
| 20260503200000 | 14 | 47 | 3.2 | 4.8 | 0.00 | 0.00 | 0.00 | 34 | 1009.7 |
| 20260503194500 | 15 | 320 | 3.2 | 4.8 | 0.00 | 0.00 | 0.00 | 34 | 1010.0 |
| 20260503193000 | 15 | 10 | 3.2 | 9.7 | 0.00 | 0.00 | 0.00 | 37 | 1010.0 |
| 20260503191500 | 15 | 131 | 6.4 | 12.9 | 0.00 | 0.00 | 0.00 | 35 | 1010.2 |
| 20260503190000 | 15 | 97 | 1.6 | 6.4 | 0.00 | 0.00 | 0.00 | 35 | 1010.2 |
| 20260503184500 | 13 | 352 | 3.2 | 6.4 | 0.00 | 0.00 | 0.00 | 36 | 1010.4 |
| 20260503183000 | 13 | 18 | 4.8 | 8.0 | 0.00 | 0.00 | 0.00 | 36 | 1010.5 |
| 20260503181500 | 14 | 75 | 3.2 | 4.8 | 0.00 | 0.00 | 0.00 | 39 | 1010.5 |
| 20260503180000 | 13 | 28 | 3.2 | 9.7 | 0.00 | 0.00 | 0.00 | 38 | 1010.6 |
| 20260503174500 | 12 | 89 | 1.6 | 4.8 | 0.00 | 0.00 | 0.00 | 43 | 1010.8 |
| 20260503173000 | 13 | 32 | 3.2 | 9.7 | 0.00 | 0.00 | 0.00 | 39 | 1010.9 |
| 20260503171500 | 12 | 289 | 3.2 | 4.8 | 0.00 | 0.00 | 0.00 | 43 | 1011.0 |